Home > Weather > Zabrze > Past weeks

Flag for Poland Past Weather in Zabrze, Poland — Yesterday and Last 2 Weeks

Now
61 °F

Clear.


Feels Like: 61 °F
Forecast: 50 / 70 °F
Wind: 3 mph from West

Location: Katowice Airport

Current Time: Aug 30, 2016 at 1:41:41 AM

Latest Report: Aug 30, 2016 at 1:00 AM


Visibility: 10 mi

Pressure: 30.09 "Hg

Humidity: 88%

Dew Point: 57 °F

Location of ZabrzeLocation

Past Weather in Zabrze — Graph

°F

Zabrze Temperature Yesterday

Maximum temperature yesterday: 81 °F (at 1:00 PM)
Minimum temperature yesterday: 63 °F (at 11:00 PM)
Average temperature yesterday: 71 °F

High & Low Weather Summary for the Past Weeks

 TemperatureHumidityPressure
High82 °F (Aug 27, 4:00 PM)100% (Aug 15, 3:00 AM)30.33 "Hg (Aug 15, 3:00 AM)
Low45 °F (Aug 23, 5:30 AM)37% (Aug 26, 4:30 PM)29.83 "Hg (Aug 18, 4:30 PM)
Average64 °F75%30.11 "Hg
* Reported Aug 15 12:00 AM — Aug 30 12:30 AM, Zabrze, Weather by CustomWeather, © 2016

Note: Actual official high and low records may vary slightly from our data, if they occured in-between our weather recording intervals... More about our weather records

Advertising

Zabrze Weather History for the Previous 24 Hours

Scroll right to see more
 ConditionsComfort  
Time TempWeatherWind HumidityBarometerVisibility
12:30 AM
Tue, Aug 30
61 °FClear.2 mph83%30.09 "Hg10 mi
12:00 AM64 °FClear.3 mph78%30.09 "Hg10 mi
11:30 PM
Mon, Aug 29
64 °FClear.2 mph78%30.07 "Hg10 mi
11:00 PM63 °FClear.6 mph83%30.07 "Hg10 mi
10:30 PM64 °FClear.6 mph78%30.07 "Hg10 mi
10:00 PM64 °FClear.3 mph78%30.07 "Hg10 mi
9:30 PM68 °FPassing clouds.5 mph69%30.04 "HgN/A
9:00 PM68 °FSprinkles. Passing clouds.5 mph73%30.04 "HgN/A
8:30 PM68 °FSunny.3 mph73%30.04 "Hg10 mi
8:00 PM70 °FPartly sunny.3 mph69%30.04 "HgN/A
7:30 PM70 °FScattered clouds.6 mph69%30.01 "HgN/A
7:00 PM72 °FSunny.3 mph69%30.01 "Hg10 mi
6:30 PM73 °FSunny.6 mph65%30.01 "Hg10 mi
6:00 PM73 °FSunny.7 mph65%30.01 "Hg10 mi
5:30 PM73 °FSunny.10 mph65%30.01 "Hg10 mi
5:00 PM75 °FPassing clouds.12 mph61%30.01 "HgN/A
4:30 PM77 °FPassing clouds.14 mph57%30.01 "HgN/A
4:00 PM77 °FScattered clouds.9 mph61%30.01 "HgN/A
3:30 PM77 °FPassing clouds.10 mph61%30.01 "HgN/A
3:00 PM77 °FPassing clouds.13 mph57%30.01 "HgN/A
2:30 PM77 °FSunny.12 mph61%30.01 "Hg10 mi
2:00 PM77 °FSunny.14 mph61%30.01 "Hg10 mi
1:30 PM79 °FScattered clouds.12 mph58%30.01 "HgN/A
1:00 PM81 °FPassing clouds.13 mph54%30.01 "HgN/A
12:30 PM79 °FPassing clouds.9 mph58%29.98 "HgN/A
12:00 PM79 °FPassing clouds.10 mph58%29.98 "HgN/A
11:30 AM77 °FSunny.13 mph57%29.98 "Hg10 mi
11:00 AM77 °FSunny.10 mph57%29.98 "Hg10 mi
10:30 AM77 °FSunny.10 mph57%29.98 "Hg10 mi
10:00 AM75 °FSunny.10 mph61%29.98 "Hg10 mi
9:30 AM73 °FSunny.12 mph61%29.98 "Hg10 mi
9:00 AM73 °FSunny.13 mph61%29.98 "Hg10 mi
8:30 AM72 °FSunny.17 mph61%29.98 "Hg10 mi
8:00 AM72 °FSunny.15 mph61%29.95 "Hg10 mi
7:30 AM70 °FSunny.13 mph64%29.95 "Hg10 mi
7:00 AM70 °FSunny.14 mph64%29.95 "Hg10 mi
6:30 AM68 °FClear.13 mph69%29.95 "Hg10 mi
6:00 AM68 °FClear.13 mph69%29.95 "Hg10 mi
5:30 AM66 °FClear.10 mph73%29.95 "Hg10 mi
5:00 AM64 °FClear.8 mph78%29.98 "Hg10 mi
4:30 AM64 °FPassing clouds.5 mph78%29.98 "HgN/A
4:00 AM64 °FPassing clouds.5 mph78%29.98 "HgN/A
3:30 AM64 °FClear.6 mph78%29.98 "Hg10 mi
3:00 AM66 °FClear.5 mph73%29.98 "Hg10 mi
2:30 AM66 °FClear.7 mph78%29.98 "Hg10 mi
2:00 AM68 °FClear.6 mph73%29.98 "Hg10 mi
1:30 AM68 °FPassing clouds.6 mph73%30.01 "HgN/A
1:00 AM70 °FClear.8 mph69%30.01 "Hg10 mi
Weather by CustomWeather, © 2016

See weather overviewHow to use our weather pages